Location: Unspecified
(20.0000°S, 0.0000°E)
Time: 08:40:11
(UTC+00:00)

NUDT-PHONESAT - Pass Details

Date: 30 July 2019
Orbit: 488 x 505 km, 97.4° (Epoch: 18 August)

Event Time Altitude Azimuth Distance (km) Brightness Sun altitude
Rises 06:04:28 0° 5° (N) 2,581 ? -6.7°
Reaches altitude 10° 06:06:33 10° 1° (N) 1,707 ? -6.2°
Maximum altitude 06:10:11 59° 281° (W) 588 ? -5.4°
Drops below altitude 10° 06:13:52 10° 200° (SSW) 1,734 ? -4.6°
Sets 06:16:00 0° 196° (SSW) 2,626 ? -4.1°
